Atmospheric History
02/08/2018 19:40  to  2/9/2018 19:40
Change End Date:
To complete the export process:
1) Select all of the data below
2) Copy the data to the clipboard
3) Open a word processor such as Notepad
4) Paste the data into the word processor
5) Save the file

Date/Time (MDT), AirTemp, RH, Dewpoint ,AvgWindSpeed, GustWindSpeed, WindDirection, PrecipType, PrecipIntensity, PrecipAccumulation, PrecipRate
02/09/2018 19:40, 20, 71, 12 ,1, 2, N, None, None, ,  
02/09/2018 19:31, 20, 71, 12 ,0, 2, W, None, None, ,  
02/09/2018 19:29, 20, 71, 12 ,1, 2, NW, None, None, ,  
02/09/2018 19:19, 20, 71, 12 ,0, 3, E, None, None, ,  
02/09/2018 19:16, 20, 71, 12 ,1, 3, N, None, None, ,  
02/09/2018 19:09, 20, 70, 12 ,1, 2, NE, None, None, ,  
02/09/2018 19:01, 20, 70, 12 ,0, 1, W, None, None, ,  
02/09/2018 18:59, 20, 70, 12 ,0, 1, NE, None, None, ,  
02/09/2018 18:49, 20, 69, 12 ,0, 1, N, None, None, ,  
02/09/2018 18:46, 20, 69, 12 ,1, 1, N, None, None, ,  
02/09/2018 18:39, 20, 68, 12 ,0, 1, E, None, None, ,  
02/09/2018 18:31, 20, 68, 11 ,0, 1, NE, None, None, ,  
02/09/2018 18:29, 20, 68, 11 ,0, 1, N, None, None, ,  
02/09/2018 18:19, 20, 67, 11 ,1, 2, E, None, None, ,  
02/09/2018 18:16, 20, 67, 11 ,0, 1, NE, None, None, ,  
02/09/2018 18:09, 20, 66, 11 ,0, 1, N, None, None, ,  
02/09/2018 18:01, 20, 66, 11 ,0, 3, NE, None, None, ,  
02/09/2018 17:59, 20, 66, 11 ,1, 3, NW, None, None, ,  
02/09/2018 17:49, 20, 66, 11 ,1, 2, NE, None, None, ,  
02/09/2018 17:46, 20, 66, 11 ,1, 2, N, None, None, ,  
02/09/2018 17:39, 21, 66, 11 ,0, 2, NE, None, None, ,  
02/09/2018 17:31, 21, 66, 11 ,1, 2, NE, None, None, ,  
02/09/2018 17:29, 21, 66, 11 ,1, 2, NE, None, None, ,  
02/09/2018 17:19, 21, 66, 11 ,1, 3, NW, None, None, ,  
02/09/2018 17:16, 21, 66, 11 ,0, 5, E, None, None, ,  
02/09/2018 17:09, 20, 66, 11 ,2, 5, N, None, None, ,  
02/09/2018 17:01, 20, 65, 11 ,1, 4, NW, None, None, ,  
02/09/2018 16:59, 20, 65, 11 ,2, 4, NE, None, None, ,  
02/09/2018 16:49, 20, 65, 11 ,2, 4, E, None, None, ,  
02/09/2018 16:46, 20, 65, 11 ,0, 4, NE, None, None, ,  
02/09/2018 16:39, 20, 65, 11 ,2, 6, E, None, None, ,  
02/09/2018 16:31, 20, 64, 10 ,4, 7, E, None, None, ,  
02/09/2018 16:28, 20, 64, 10 ,4, 7, E, None, None, ,  
02/09/2018 16:18, 21, 63, 10 ,4, 8, NE, None, None, ,  
02/09/2018 16:16, 21, 63, 11 ,4, 8, E, None, None, ,  
02/09/2018 16:08, 21, 63, 11 ,4, 7, E, None, None, ,  
02/09/2018 16:01, 21, 63, 11 ,3, 9, E, None, None, ,  
02/09/2018 15:58, 21, 63, 11 ,4, 9, E, None, None, ,  
02/09/2018 15:48, 21, 63, 11 ,5, 9, E, None, None, ,  
02/09/2018 15:46, 22, 63, 11 ,4, 8, NE, None, None, ,  
02/09/2018 15:38, 22, 64, 12 ,2, 7, SE, None, None, ,  
02/09/2018 15:31, 21, 64, 11 ,4, 8, NE, None, None, ,  
02/09/2018 15:28, 21, 64, 11 ,4, 7, NE, None, None, ,  
02/09/2018 15:18, 21, 64, 11 ,3, 10, NE, None, None, ,  
02/09/2018 15:16, 21, 64, 11 ,6, 10, NE, None, None, ,  
02/09/2018 15:08, 21, 65, 12 ,5, 8, NE, None, None, ,  
02/09/2018 15:01, 21, 65, 12 ,3, 7, E, None, None, ,  
02/09/2018 14:58, 21, 65, 12 ,4, 7, E, None, None, ,  
02/09/2018 14:48, 21, 66, 12 ,4, 10, N, None, None, ,  
02/09/2018 14:46, 21, 66, 11 ,4, 10, NE, None, None, ,  
02/09/2018 14:38, 21, 66, 12 ,4, 10, E, None, None, ,  
02/09/2018 14:31, 21, 67, 12 ,3, 9, E, None, None, ,  
02/09/2018 14:28, 21, 68, 12 ,5, 9, N, None, None, ,  
02/09/2018 14:18, 20, 68, 12 ,6, 13, E, None, None, ,  
02/09/2018 14:16, 20, 68, 12 ,6, 13, E, None, None, ,  
02/09/2018 14:08, 21, 69, 12 ,4, 10, E, None, None, ,  
02/09/2018 14:01, 21, 69, 12 ,5, 9, E, None, None, ,  
02/09/2018 13:58, 21, 69, 12 ,5, 9, E, None, None, ,  
02/09/2018 13:48, 20, 70, 12 ,6, 11, E, None, None, ,  
02/09/2018 13:46, 20, 70, 12 ,6, 12, NE, None, None, ,  
02/09/2018 13:38, 20, 71, 13 ,7, 12, E, None, None, ,  
02/09/2018 13:31, 20, 72, 13 ,5, 12, NE, None, None, ,  
02/09/2018 13:28, 20, 72, 13 ,7, 12, E, None, None, ,  
02/09/2018 13:18, 20, 74, 13 ,6, 10, NE, None, None, ,  
02/09/2018 13:16, 20, 74, 13 ,6, 11, E, None, None, ,  
02/09/2018 13:08, 20, 74, 13 ,6, 11, NE, None, None, ,  
02/09/2018 13:01, 20, 74, 13 ,4, 9, NE, None, None, ,  
02/09/2018 12:57, 20, 74, 13 ,6, 9, E, None, None, ,  
02/09/2018 12:47, 20, 74, 13 ,6, 11, NE, None, None, ,  
02/09/2018 12:46, 20, 74, 14 ,5, 10, E, None, None, ,  
02/09/2018 12:37, 20, 74, 14 ,6, 11, E, None, None, ,  
02/09/2018 12:31, 21, 75, 14 ,4, 9, NE, None, None, ,  
02/09/2018 12:27, 20, 75, 14 ,2, 9, NE, None, None, ,  
02/09/2018 12:17, 20, 75, 13 ,5, 11, E, None, None, ,  
02/09/2018 12:16, 20, 75, 13 ,4, 11, E, None, None, ,  
02/09/2018 12:07, 19, 75, 13 ,6, 10, NE, None, None, ,  
02/09/2018 12:01, 19, 75, 13 ,6, 9, E, None, None, ,  
02/09/2018 11:57, 20, 75, 13 ,6, 9, NE, None, None, ,  
02/09/2018 11:47, 19, 75, 13 ,6, 9, E, None, None, ,  
02/09/2018 11:46, 19, 75, 13 ,6, 9, E, None, None, ,  
02/09/2018 11:37, 19, 76, 13 ,6, 11, NE, None, None, ,  
02/09/2018 11:31, 19, 76, 13 ,5, 11, E, None, None, ,  
02/09/2018 11:27, 19, 76, 13 ,5, 11, NE, None, None, ,  
02/09/2018 11:17, 19, 77, 13 ,6, 9, NE, None, None, ,  
02/09/2018 11:16, 19, 78, 13 ,6, 10, E, None, None, ,  
02/09/2018 11:07, 19, 79, 14 ,6, 10, NE, None, None, ,  
02/09/2018 11:01, 19, 80, 14 ,4, 11, E, None, None, ,  
02/09/2018 10:57, 19, 81, 14 ,6, 11, NE, None, None, ,  
02/09/2018 10:47, 19, 81, 14 ,6, 11, E, None, None, ,  
02/09/2018 10:46, 19, 81, 15 ,6, 11, NE, None, None, ,  
02/09/2018 10:37, 20, 82, 15 ,6, 10, E, None, None, ,  
02/09/2018 10:31, 20, 82, 15 ,4, 11, NE, None, None, ,  
02/09/2018 10:27, 19, 82, 15 ,5, 9, NE, None, None, ,  
02/09/2018 10:17, 19, 82, 15 ,6, 10, NE, None, None, ,  
02/09/2018 10:16, 19, 81, 15 ,6, 10, NE, None, None, ,  
02/09/2018 10:07, 19, 82, 15 ,4, 10, NE, None, None, ,  
02/09/2018 10:01, 19, 82, 15 ,4, 10, NE, None, None, ,  
02/09/2018 09:57, 19, 82, 15 ,6, 9, NE, None, None, ,  
02/09/2018 09:47, 19, 81, 15 ,4, 9, E, None, None, ,  
02/09/2018 09:46, 19, 81, 15 ,5, 9, NE, None, None, ,  
02/09/2018 09:37, 19, 80, 14 ,6, 11, NE, None, None, ,  
02/09/2018 09:31, 20, 80, 15 ,4, 10, NE, None, None, ,  
02/09/2018 09:26, 20, 80, 15 ,4, 9, NE, None, None, ,  
02/09/2018 09:16, 20, 80, 15 ,4, 10, NE, None, None, ,  
02/09/2018 09:16, 20, 80, 15 ,5, 10, NE, None, None, ,  
02/09/2018 09:06, 20, 81, 15 ,4, 8, E, None, None, ,  
02/09/2018 09:01, 19, 81, 15 ,5, 9, NE, None, None, ,  
02/09/2018 08:56, 19, 81, 15 ,4, 9, NE, None, None, ,  
02/09/2018 08:46, 19, 81, 15 ,5, 9, E, None, None, ,  
02/09/2018 08:46, 19, 81, 15 ,6, 9, E, None, None, ,  
02/09/2018 08:36, 20, 81, 15 ,6, 9, NE, None, None, ,  
02/09/2018 08:31, 20, 81, 15 ,5, 12, E, None, None, ,  
02/09/2018 08:26, 20, 81, 15 ,3, 12, E, None, None, ,  
02/09/2018 08:16, 20, 82, 15 ,5, 9, NE, None, None, ,  
02/09/2018 08:16, 19, 81, 15 ,4, 9, NE, None, None, ,  
02/09/2018 08:06, 20, 82, 15 ,6, 10, NE, None, None, ,  
02/09/2018 08:01, 20, 82, 16 ,4, 6, E, None, None, ,  
02/09/2018 07:56, 20, 83, 16 ,4, 8, NE, None, None, ,  
02/09/2018 07:46, 20, 82, 16 ,3, 6, E, None, None, ,  
02/09/2018 07:46, 20, 82, 16 ,3, 6, E, None, None, ,  
02/09/2018 07:36, 20, 82, 16 ,4, 12, E, None, None, ,  
02/09/2018 07:31, 20, 82, 16 ,4, 12, SE, None, None, ,  
02/09/2018 07:26, 21, 82, 16 ,5, 7, E, None, None, ,  
02/09/2018 07:16, 21, 80, 16 ,5, 9, NE, None, None, ,  
02/09/2018 07:16, 21, 80, 16 ,4, 9, NE, None, None, ,  
02/09/2018 07:06, 21, 79, 16 ,2, 9, E, None, None, ,  
02/09/2018 07:01, 21, 79, 16 ,2, 9, E, None, None, ,  
02/09/2018 06:56, 21, 79, 16 ,4, 10, E, None, None, ,  
02/09/2018 06:46, 22, 79, 16 ,7, 10, E, None, None, ,  
02/09/2018 06:45, 21, 79, 16 ,7, 9, E, None, None, ,  
02/09/2018 06:35, 22, 77, 16 ,6, 9, E, None, None, ,  
02/09/2018 06:31, 22, 76, 16 ,4, 12, E, None, None, ,  
02/09/2018 06:25, 22, 76, 16 ,6, 12, NE, None, None, ,  
02/09/2018 06:16, 22, 76, 16 ,2, 11, SE, None, None, ,  
02/09/2018 06:15, 22, 76, 16 ,3, 11, SE, None, None, ,  
02/09/2018 06:05, 22, 75, 16 ,3, 8, SE, None, None, ,  
02/09/2018 06:01, 23, 74, 16 ,4, 7, E, None, None, ,  
02/09/2018 05:55, 23, 73, 16 ,2, 7, E, None, None, ,  
02/09/2018 05:46, 23, 72, 16 ,4, 9, SE, None, None, ,  
02/09/2018 05:45, 23, 72, 16 ,4, 9, SE, None, None, ,  
02/09/2018 05:35, 24, 72, 16 ,3, 11, SE, None, None, ,  
02/09/2018 05:31, 24, 72, 16 ,5, 11, E, None, None, ,  
02/09/2018 05:25, 23, 72, 16 ,4, 9, NE, None, None, ,  
02/09/2018 05:16, 23, 72, 16 ,6, 9, NE, None, None, ,  
02/09/2018 05:15, 23, 72, 16 ,7, 9, NE, None, None, ,  
02/09/2018 05:05, 24, 72, 17 ,5, 12, E, None, None, ,  
02/09/2018 05:01, 24, 72, 17 ,5, 12, NE, None, None, ,  
02/09/2018 04:55, 24, 72, 16 ,3, 12, E, None, None, ,  
02/09/2018 04:46, 24, 73, 17 ,7, 20, E, None, None, ,  
02/09/2018 04:45, 24, 73, 17 ,6, 21, E, None, None, ,  
02/09/2018 04:35, 24, 76, 17 ,12, 19, E, None, None, ,  
02/09/2018 04:31, 24, 76, 17 ,10, 16, NE, None, None, ,  
02/09/2018 04:25, 24, 76, 18 ,8, 14, E, None, None, ,  
02/09/2018 04:16, 24, 78, 19 ,9, 16, E, None, None, ,  
02/09/2018 04:15, 24, 79, 19 ,9, 16, E, None, None, ,  
02/09/2018 04:05, 24, 82, 20 ,13, 18, E, None, None, ,  
02/09/2018 04:01, 24, 82, 20 ,10, 15, E, None, None, ,  
02/09/2018 03:55, 25, 82, 20 ,7, 14, E, None, None, ,  
02/09/2018 03:46, 25, 83, 21 ,9, 15, E, None, None, ,  
02/09/2018 03:45, 25, 82, 21 ,7, 16, E, None, None, ,  
02/09/2018 03:35, 25, 81, 20 ,11, 16, NE, None, None, ,  
02/09/2018 03:31, 25, 81, 20 ,11, 16, E, None, None, ,  
02/09/2018 03:25, 26, 81, 21 ,9, 16, E, None, None, ,  
02/09/2018 03:16, 26, 81, 22 ,8, 13, E, None, None, ,  
02/09/2018 03:15, 27, 81, 22 ,7, 13, E, None, None, ,  
02/09/2018 03:04, 26, 82, 22 ,7, 16, E, None, None, ,  
02/09/2018 03:01, 26, 82, 21 ,7, 16, E, None, None, ,  
02/09/2018 02:54, 26, 85, 22 ,6, 20, E, None, None, ,  
02/09/2018 02:46, 26, 89, 24 ,9, 15, E, None, None, ,  
02/09/2018 02:44, 26, 89, 24 ,9, 15, NE, None, None, ,  
02/09/2018 02:34, 26, 90, 24 ,8, 14, E, None, None, ,  
02/09/2018 02:31, 26, 90, 24 ,7, 16, NE, None, None, ,  
02/09/2018 02:24, 26, 90, 24 ,11, 16, E, None, None, ,  
02/09/2018 02:16, 27, 90, 25 ,9, 18, E, None, None, ,  
02/09/2018 02:14, 27, 90, 25 ,9, 18, NE, None, None, ,  
02/09/2018 02:04, 28, 90, 26 ,10, 16, NE, None, None, ,  
02/09/2018 02:01, 29, 90, 27 ,9, 15, E, None, None, ,  
02/09/2018 01:54, 30, 90, 28 ,9, 12, E, None, None, ,  
02/09/2018 01:46, 30, 90, 28 ,7, 14, NE, None, None, ,  
02/09/2018 01:44, 30, 90, 28 ,9, 14, NE, None, None, ,  
02/09/2018 01:34, 30, 90, 28 ,10, 15, NE, None, None, ,  
02/09/2018 01:31, 30, 90, 28 ,10, 14, NE, None, None, ,  
02/09/2018 01:24, 30, 90, 28 ,7, 17, NE, None, None, ,  
02/09/2018 01:16, 30, 90, 28 ,11, 17, E, None, None, ,  
02/09/2018 01:14, 31, 90, 29 ,11, 16, NE, None, None, ,  
02/09/2018 01:04, 32, 90, 30 ,7, 13, NE, Yes, , ,  
02/09/2018 01:01, 33, 90, 30 ,7, 12, NE, Yes, , ,  
02/09/2018 00:54, 33, 89, 31 ,7, 12, E, Yes, , ,  
02/09/2018 00:46, 34, 89, 31 ,7, 11, E, Yes, , ,  
02/09/2018 00:44, 35, 88, 32 ,6, 11, E, Yes, , ,  
02/09/2018 00:34, 37, 88, 33 ,2, 2, E, Yes, , ,  
02/09/2018 00:31, 37, 88, 33 ,0, 2, E, Yes, , ,  
02/09/2018 00:24, 37, 87, 33 ,0, 0, S, Yes, , ,  
02/09/2018 00:16, 36, 86, 33 ,0, 1, SW, Yes, , ,  
02/09/2018 00:14, 36, 86, 33 ,0, 4, SW, Yes, , ,  
02/09/2018 00:04, 37, 85, 33 ,3, 6, SE, Yes, , ,  
02/09/2018 00:01, 37, 85, 33 ,1, 8, SE, Yes, , ,  
02/08/2018 23:54, 37, 84, 33 ,3, 8, S, Yes, , ,  
02/08/2018 23:46, 37, 83, 33 ,4, 14, NW, Yes, , ,  
02/08/2018 23:43, 37, 82, 33 ,5, 14, NW, Yes, , ,  
02/08/2018 23:33, 39, 80, 33 ,7, 16, N, Yes, , ,  
02/08/2018 23:31, 39, 79, 33 ,9, 16, NW, Yes, , ,  
02/08/2018 23:23, 40, 76, 33 ,7, 12, NW, Yes, , ,  
02/08/2018 23:16, 41, 72, 33 ,1, 12, S, Yes, , ,  
02/08/2018 23:13, 41, 72, 33 ,4, 12, N, Yes, , ,  
02/08/2018 23:03, 41, 69, 32 ,2, 6, SE, Yes, , ,  
02/08/2018 23:01, 41, 69, 32 ,2, 6, S, None, None, ,  
02/08/2018 22:53, 41, 69, 32 ,2, 5, E, Yes, , ,  
02/08/2018 22:46, 41, 68, 31 ,1, 6, N, Yes, , ,  
02/08/2018 22:43, 41, 68, 31 ,3, 9, W, Yes, , ,  
02/08/2018 22:33, 42, 64, 31 ,4, 14, W, Yes, , ,  
02/08/2018 22:31, 42, 64, 31 ,5, 14, W, Yes, , ,  
02/08/2018 22:23, 42, 60, 30 ,6, 12, W, Yes, , ,  
02/08/2018 22:16, 43, 56, 29 ,7, 16, NW, Yes, , ,  
02/08/2018 22:13, 44, 55, 29 ,9, 16, NW, Yes, , ,  
02/08/2018 22:03, 43, 54, 28 ,4, 9, S, None, None, ,  
02/08/2018 22:01, 43, 54, 28 ,3, 9, W, Yes, , ,  
02/08/2018 21:53, 43, 54, 28 ,1, 3, NW, None, None, ,  
02/08/2018 21:46, 44, 53, 28 ,1, 4, NE, None, None, ,  
02/08/2018 21:43, 44, 53, 28 ,1, 4, N, None, None, ,  
02/08/2018 21:33, 43, 52, 27 ,3, 4, E, None, None, ,  
02/08/2018 21:31, 43, 52, 27 ,3, 4, E, None, None, ,  
02/08/2018 21:23, 43, 51, 26 ,2, 4, SE, None, None, ,  
02/08/2018 21:16, 44, 49, 26 ,1, 6, N, None, None, ,  
02/08/2018 21:13, 44, 49, 26 ,3, 7, W, None, None, ,  
02/08/2018 21:03, 44, 46, 25 ,3, 8, W, None, None, ,  
02/08/2018 21:01, 44, 46, 25 ,4, 8, NW, None, None, ,  
02/08/2018 20:53, 45, 45, 25 ,4, 11, NW, None, None, ,  
02/08/2018 20:46, 45, 45, 25 ,6, 8, W, None, None, ,  
02/08/2018 20:43, 45, 44, 25 ,4, 7, W, None, None, ,  
02/08/2018 20:33, 45, 45, 25 ,2, 6, NW, None, None, ,  
02/08/2018 20:31, 45, 45, 25 ,2, 6, W, None, None, ,  
02/08/2018 20:23, 45, 45, 25 ,2, 7, W, None, None, ,  
02/08/2018 20:16, 45, 45, 25 ,2, 3, NW, None, None, ,  
02/08/2018 20:12, 45, 44, 25 ,0, 3, NW, None, None, ,  
02/08/2018 20:02, 45, 43, 25 ,0, 4, SW, None, None, ,  
02/08/2018 20:01, 46, 43, 24 ,1, 4, SW, None, None, ,  
02/08/2018 19:52, 47, 41, 24 ,0, 6, S, None, None, ,  
02/08/2018 19:46, 47, 41, 24 ,2, 15, NW, None, None, ,  
02/08/2018 19:42, 47, 41, 24 ,4, 15, W, None, None, ,  
Change End Date:

Copyright © 1998-2015 Vaisala, Inc.
All Rights Reserved
Send comments about the data to:
SCAN Web ® is a registered trademark of Vaisala, Inc.
SCAN Web Version 6.0